Location: Freistadt
(48.5112°N, 14.5013°E)
Time: 07:59:33
(UTC+01:00)

N. Korean satellite - Pass Details

Date: 05 December 2022
Orbit: 407 x 442 km, 97.3° (Epoch: 04 February)

Event Time Altitude Azimuth Distance (km) Brightness Sun altitude
Rises 17:30:40 0° 209° (SSW) 2,455 10.9 -13.1°
Reaches altitude 10° 17:33:25 10° 235° (SW) 1,601 10.5 -13.6°
Maximum altitude 17:35:23 14° 270° (W) 1,365 10.0 -13.9°
Drops below altitude 10° 17:37:21 10° 304° (NW) 1,624 9.7 -14.2°
Sets 17:40:12 0° 330° (NNW) 2,514 10.4 -14.6°
